www.pogodaiklimat.ru

Погода и климат >> Архив погоды >> Канада >> Dubawnt Lake


ПОГОДА в Dubawnt Lake

  • Прогноз погоды в Dubawnt Lake
  • Монитор погоды в Dubawnt Lake
  • Климат города

АРХИВ ПОГОДЫ в Dubawnt Lake

Время (UTC), дата Ветер
(напр.,м/с)
 
Видим.   Явления Облачность Т
(С)
Тd
(С)
f
(%)
Тe
(С)
Тes
(С)
Комфортность P
(гПа)
Po
(гПа)
Тmin
(С)
Tmax
(С)
R
(мм)
R24
(мм)
S
(см)
03 11.08 СЗ 5 4800 м дым ясно +26.4 +11.9 40 +28 +28 жарко 1004.9 945.1
06 11.08 З 3 3200 м дым ясно +17.7 +10.2 61 +18 +18 1007.0 946.8 +11.3 +31.0 3
09 11.08 З 3 3200 м дым ясно +16.1 +11.9 76 +16 +16 1007.7 947.7
12 11.08 СЗ 3 4800 м дым ясно +14.9 +11.8 82 +14 +15 1010.7 950.5 +14.9 +31.0
15 11.08 СЗ 7 16 км ясно +16.8 +8.0 56 +16 +17 1012.9 952.5
18 11.08 СЗ 7 16 км ясно +18.7 +4.4 39 +18 +21 1014.9 954.0 +14.9 +18.7
21 11.08 СЗ 7 16 км ясно +19.5 +4.2 36 +19 +22 1015.8 954.8
00 12.08 СЗ 6 16 км ясно +17.9 +1.8 34 +17 +18 1017.3 956.1 +14.9 +20.1
03 12.08 СЗ 4 16 км ясно +14.1 +4.7 53 +13 +13 1019.4 958.0
06 12.08 С 4 16 км ясно +9.1 +4.9 75 +6 +6 1021.3 959.6 +9.1 +20.1 181
09 12.08 СЗ 2 16 км 9/0
[]
+7.7 +5.2 84 +6 +6 1022.9 961.1
12 12.08 СВ 1 16 км ясно +6.1 +4.8 91 +5 +5 1023.4 961.4 +5.9 +20.1
15 12.08 В 4 16 км 3/3 300 м
[]
+11.5 +5.4 66 +10 +12 1023.9 961.9
18 12.08 В 2 16 км ясно +12.6 +4.6 58 +12 +21 1023.6 961.4 +5.9 +12.8
21 12.08 В 3 16 км ясно +16.6 +2.4 38 +16 +23 1022.6 960.6
00 13.08 В 4 16 км ясно +16.4 +2.8 40 +16 +17 1020.9 958.9 +5.9 +17.5
03 13.08 В 3 16 км 9/0
[]
+13.4 +3.8 52 +13 +13 1020.7 958.9
06 13.08 В 1 16 км 9/0
[]
+7.8 +4.3 79 +7 +7 1021.3 959.2 +5.9 +17.5
09 13.08 СЗ 1 16 км 9/0
[]
+6.7 +4.2 84 +7 +7 1020.7 958.8
12 13.08 Ю 2 16 км 10/0
[]
+6.4 +5.4 93 +4 +5 1021.1 959.1 +5.8 +17.5
15 13.08 З 4 16 км ясно +13.5 +6.3 62 +12 +16 1020.4 958.7
18 13.08 З 2 16 км ясно +16.5 +3.8 43 +17 +27 1019.2 957.4 +5.8 +16.8
21 13.08 ЮЗ 5 16 км 3/0 2000 м
[]
+19.0 +1.6 31 +19 +23 1017.5 955.9
00 14.08 ЮЗ 6 16 км 9/0 2000 м
[]
+19.5 +1.6 30 +19 +20 1016.0 954.5 +5.8 +19.8
03 14.08 ЮЗ 5 16 км ясно +15.3 +4.6 49 +14 +14 1015.1 953.8
06 14.08 Ю 6 16 км ясно +13.9 +6.8 62 +12 +12 1012.9 951.8 +5.8 +19.8 0
09 14.08 ЮЗ 7 16 км 3/0
[]
+13.7 +7.5 66 +11 +11 1010.9 950.1
12 14.08 Ю 7 16 км 10/0 2000 м
[]
+13.2 +7.9 70 +11 +11 1008.6 947.9 +13.2 +19.8
15 14.08 Ю 8 16 км 10/0 2000 м
[]
+13.1 +8.0 71 +10 +11 1006.5 945.7
18 14.08 ЮЗ 7 16 км ясно +15.5 +8.5 63 +14 +16 1005.3 944.7 +12.4 +15.5
21 14.08 ЮЗ 7 16 км 3/0
[]
+18.0 +9.8 59 +17 +19 1003.9 943.5
00 15.08 ЮЗ 6 16 км ясно +21.1 +11.4 54 +23 +24 комфорт 1003.4 943.1 +12.4 +21.4
03 15.08 Ю 5 16 км ясно +18.3 +12.4 68 +18 +18 1003.3 942.9
06 15.08 ЮЗ 4 16 км 3/0
[]
+17.1 +13.3 78 +17 +17 1002.9 942.6 +12.4 +21.4 161
09 15.08 ЮЗ 2 16 км 10/0
[]
+15.8 +13.3 85 +16 +16 1002.6 942.3
12 15.08 З 2 16 км 3/0
[]
+13.1 +11.8 92 +13 +13 1002.6 942.4 +13.1 +21.4
15 15.08 З 2 14 км ясно +20.6 +13.2 63 +24 +29 комфорт 1003.1 943.1
18 15.08 СЗ 6 16 км 3/0
[]
+22.1 +7.7 40 +23 +26 комфорт 1004.6 944.5 +12.7 +22.3
21 15.08 СЗ 9 16 км 3/3 1500 м
[]
+21.5 +7.9 42 +23 +23 комфорт 1007.1 946.8
00 16.08 СЗ 8 16 км 9/9 1000 м
[]
+16.1 +7.0 55 +15 +15 1011.3 950.3 +12.7 +22.9
03 16.08 С 4 16 км 10/10 1000 м
[]
+14.3 +6.2 58 +13 +13 1013.7 952.8
06 16.08 С 3 16 км 10/10 600 м
[]
+12.6 +7.1 69 +11 +11 1016.3 955.3 +12.6 +22.9 231
09 16.08 СВ 2 16 км ясно +7.7 +5.5 86 +6 +6 1018.7 957.2
12 16.08 Ю 1 16 км ясно +2.7 +1.3 90 +1 +1 1021.2 959.0 +2.7 +22.9
15 16.08 Ю 2 16 км ясно +11.9 +5.5 65 +11 +16 1021.7 959.9
18 16.08 Ю 4 16 км ясно +16.9 +4.6 44 +16 +22 1021.0 959.4 +2.7 +16.9
21 16.08 ЮЗ 4 16 км ясно +20.8 +3.2 31 +21 +26 комфорт 1019.2 957.7
00 17.08 Ю 5 16 км ясно +20.9 +4.4 34 +22 +23 комфорт 1018.2 956.5 +2.7 +21.4
03 17.08 Ю 4 16 км ясно +16.8 +7.0 52 +16 +16 1017.5 956.1
06 17.08 Ю 4 16 км ясно +15.0 +8.1 63 +14 +14 1016.8 955.6 +2.7 +21.4 20
09 17.08 Ю 3 16 км ясно +13.1 +8.0 71 +12 +12 1015.3 954.3
12 17.08 Ю 4 16 км ясно +13.0 +9.9 81 +11 +11 1013.8 952.9 +12.7 +21.4
15 17.08 ЮЗ 6 16 км 3/3 300 м
[]
+15.6 +12.2 80 +14 +16 1012.8 951.9
18 17.08 З 5 9000 м дым ясно +21.5 +13.8 62 +24 +29 комфорт 1011.6 950.9 +12.7 +21.5
21 17.08 З 6 11 км ясно +26.4 +7.3 30 +26 +29 жарко 1010.4 950.0

 

Местоположение метеостанции Dubawnt Lake (Канада): широта 63.23 долгота -101.70 высота над уровнем моря 237 м.

В архиве по умолчанию представлена погода в Dubawnt Lake за последнюю неделю. Архивные данные за месяц целиком и за предыдущие месяцы, начиная с января 2011 года, Вы можете получить, выбрав интересующий диапазон дат из раскрывающегося списка и нажав кнопку "Ввод!".


*Определитесь, кто Вы:
робот инопланетянин человек

Внимание! Время в таблицах - всемирное. Для получения местного времени необходимо прибавить поправку, которая в Dubawnt Lake равна -6 ч.

Смотрите также архив погоды в соседних городах и на ближайших метеорологических станциях:

Погода в Hanbury River ARS (Канада) (176 км)
Погода в Robertson Lake (Канада) (211 км)
Погода в Baker Lake Airport (Канада) (302 км)
Погода в Baker Lake Climate (Канада) (305 км)
Погода в Fort Reliance (aut) (Канада) (379 км)
Погода в Porter Lake (Канада) (387 км)
Погода в Back River MAPS (Канада) (402 км)
Погода в Lustel Ke A (Канада) (461 км)
Погода в Arviat Climate (Канада) (462 км)
Погода в Arviat (Канада) (462 км)

Пояснения к столбцам:

Ветер - указаны скорость ветра в м/с - средняя за 10 мин, порывы в срок и между сроками (в фигурных скобках) и направление, откуда дует ветер: С - северный, СВ - северо-восточный, В - восточный, ЮВ - юго-восточный, Ю - южный, ЮЗ - юго-западный, З - западный, СЗ - северо-западный.
Видимость - горизонтальная дальность видимости в метрах или километрах. При видимости от 1 до 10 км при отсутствии осадков обычно наблюдается дымка, при ухудшении видимости до 1 км и менее - туман. В сухую погоду видимость может ухудшаться дымом, пылью или мглою.
Явления - указаны атмосферные явления, наблюдавшиеся в срок или в последний час перед сроком; фигурными скобками обозначены явления, наблюдавшиеся между сроками (за 1-3 часа до срока); квадратными скобками обозначены град или гололедные отложения с указанием их диаметра в мм.
Облачность - указаны через наклонную черту общая и нижняя облачность в баллах и высота нижней границы облаков в метрах; квадратными скобками обозначены формы облаков: Ci - перистые, Cs - перисто-слоистые, Cc - перисто-кучевые, Ac - высококучевые, As - высокослоистые, Sc - слоисто-кучевые, Ns - слоисто-дождевые, Cu - кучевые, Cb - кучево-дождевые. Подробнее классификацию облаков см. в Атласе облаков (PDF).
T - Температура воздуха - температура, измеренная на высоте 2 м над землей.
Td - Температура точки росы - температура, при понижении до которой содержащийся в воздухе водяной пар достигнет насыщения.
f - Относительная влажность воздуха - влажноcть воздуха, измеренная на высоте 2 м над землей.
Te - Эффективная температура - температура, которую ощущает одетый по сезону человек в тени. Характеристика душности погоды. При расчете учитывается влияние влажности воздуха и скорости ветра на теплоощущения человека.
Tes - Эффективная температура на солнце - температура, которую ощущает человек, с поправкой на солнечный нагрев. Характеристика знойности погоды. Зависит от высоты солнца над горизонтом, облачности и скорости ветра. Ночью, в пасмурную погоду, а также при ветре 12 м/с и более поправка равна нулю.
P - Атмосферное давление - приведенное к уровню моря атмосферное давление.
Po - Атмосферное давление - измеренное на уровне метеостанции атмосферное давление.
Tmin - Минимальная температура - минимум температуры воздуха на высоте 2 м над землей.
Tmax - Максимальная температура - максимум температуры воздуха на высоте 2 м над землей.
R - Количество осадков - Количество выпавших осадков за период времени, мм. При наведении курсора мыши на число - период времени, за который выпало указанное количество осадков.
R24 - Количество осадков - Количество выпавших осадков за 24 часа, мм.
S - Снежный покров - Высота снежного покрова, см. При наведении курсора мыши на число - состояние снежного покрова и степень покрытия местности в баллах.